Preview of NWS' New Version of Forecast
This preview is not operational and should not be used for support decisions.

Regional Weather Roundup (RWR)

Issued by National Weather Service (NWS)

                            
000
ASCA42 TJSJ 200810
RWRPR 
PUERTO RICO/U.S. VIRGIN ISLANDS HOURLY WEATHER ROUNDUP
NATIONAL WEATHER SERVICE SAN JUAN PR
400 AM AST THU JUN 20 2019

PRZ001>002-007>008-010-200900-
PUERTO RICO
  
CITY           SKY/WX    TMP DP  RH WIND       PRES   REMARKS
SAN JUAN LMM   PTCLDY    81  73  78 E10       30.07R                  
CEIBA          CLOUDY    82  75  78 E12G17    30.09S                  
$$

VIZ001>002-200900-
U.S. VIRGIN ISLANDS
  
CITY           SKY/WX    TMP DP  RH WIND       PRES   REMARKS
CHARLOTTE AMA  PTCLDY    82  73  74 E9        30.06S                  
CHRISTIANSTED  CLOUDY    81  73  78 E15       30.06S                  
$$

HOURLY WEATHER ROUNDUP FOR THE NEWS MEDIA
  
CITY           SKY/WX    TMP DP  RH WIND       PRES   REMARKS
ORLANDO        FAIR      74  71  91 S6        29.97S                  
NEW YORK       LGT RAIN  66  66 100 E3        29.70  VSB 1/8          
NEWARK         DRZL/FOG  67  67 100 E5        29.68F VSB 1            
CHICAGO        LGT RAIN  57  55  93 N12       29.59F                  
HARTFORD       CLOUDY    63  60  90 SE6       29.74F                  
BOSTON         CLOUDY    64  61  90 E6        29.75F                  
DALLAS         MOCLDY    81  72  74 NE5       29.75F                  
PHILADELPHIA   CLOUDY    69  67  93 CALM      29.65                   
LOS ANGELES    CLOUDY    64  57  78 W5        29.97F                  
WASHINGTON DC  FAIR      73  71  93 SW6       29.62F